Sutton Bonington, United Kingdom

7:15 PM GMT on February 22, 2017 (GMT +0000)
East Midlands

Weather History for EGNX - August, 2013

Change the Weather History Date:

Wednesday, August 14, 2013

  Actual Average Record
Temperature  
Mean Temperature 60 °F -  
Max Temperature 69 °F 66 °F 78 °F (2002)
Min Temperature 51 °F 51 °F 50 °F (2014)
Degree Days  
Heating Degree Days 5    
Growing Degree Days 10 (Base 50)    
Moisture  
Dew Point 54 °F    
Average Humidity 79    
Maximum Humidity 94    
Minimum Humidity 53    
Precipitation  
Precipitation 0.00 in - - ()
Sea Level Pressure  
Sea Level Pressure 30.15 in    
Wind  
Wind Speed 8 mph ()    
Max Wind Speed 17 mph    
Max Gust Speed -    
Visibility 6.2 miles    
Events Rain    
Averages and records for this station are not official NWS values.
T = Trace of Precipitation, MM = Missing Value Source: Averaged Metar Reports

Daily Weather History Graph

Daily Weather History Graph

Search for Another Location

Airport or City:

Trip Planner

Search our weather history database for the weather conditions in past years. The results will help you decide how hot, cold, wet, or windy it might be!

Date:

Astronomy

Aug. 14, 2013 Rise Set
Actual Time 5:45 AM BST 8:33 PM BST
Civil Twilight 5:05 AM BST 9:12 PM BST
Nautical Twilight 4:14 AM BST 10:03 PM BST
Astronomical Twilight 3:10 AM BST 11:06 PM BST
Moon 2:38 PM BST (8/14) 11:33 PM BST (8/14)
Length of Visible Light 16h 06m
Length of Day
14h 48m
Waxing Crescent, 50% of the Moon is Illuminated
Aug 14
Waxing Crescent
Aug 21
Full
Aug 28
Last Quarter
Sep 5
New
Sep 12
First Quarter

Hourly Weather History & Observations

Time (BST) Temp. Dew Point Humidity Pressure Visibility Wind Dir Wind Speed Gust Speed Precip Events Conditions
12:20 AM 51.8 °F 48.2 °F 88% 30.21 in - WNW 6.9 mph - N/A   Clear
12:50 AM 51.8 °F 48.2 °F 88% 30.21 in - West 8.1 mph - N/A   Clear
1:20 AM 53.6 °F 48.2 °F 82% 30.18 in - WSW 8.1 mph - N/A   Clear
1:50 AM 53.6 °F 50.0 °F 88% 30.18 in - West 6.9 mph - N/A   Clear
2:20 AM 53.6 °F 50.0 °F 88% 30.18 in - West 6.9 mph - N/A   Clear
2:50 AM 51.8 °F 48.2 °F 88% 30.18 in - West 8.1 mph - N/A   Clear
3:20 AM 53.6 °F 50.0 °F 88% 30.18 in - West 5.8 mph - N/A   Clear
3:50 AM 53.6 °F 50.0 °F 88% 30.18 in - WSW 5.8 mph - N/A   Clear
4:20 AM 53.6 °F 50.0 °F 88% 30.18 in - SSW 4.6 mph - N/A   Clear
4:50 AM 53.6 °F 50.0 °F 88% 30.18 in - SSW 4.6 mph - N/A   Clear
5:20 AM 51.8 °F 50.0 °F 94% 30.18 in - SW 5.8 mph - N/A   Clear
5:50 AM 51.8 °F 50.0 °F 94% 30.18 in - WSW 5.8 mph - N/A   Clear
6:20 AM 51.8 °F 50.0 °F 94% 30.18 in - SW 5.8 mph - N/A   Clear
6:50 AM 53.6 °F 50.0 °F 88% 30.18 in - SW 6.9 mph - N/A   Clear
7:20 AM 53.6 °F 51.8 °F 94% 30.18 in - SW 9.2 mph - N/A   Clear
7:50 AM 55.4 °F 51.8 °F 88% 30.18 in - SW 6.9 mph - N/A   Clear
8:20 AM 59.0 °F 53.6 °F 82% 30.21 in - SSW 5.8 mph - N/A   Clear
8:50 AM 60.8 °F 53.6 °F 77% 30.21 in - SW 5.8 mph - N/A   Clear
9:20 AM 62.6 °F 53.6 °F 72% 30.21 in 6.2 mi SW 5.8 mph - N/A   Partly Cloudy
11:20 AM 66.2 °F 53.6 °F 64% 30.18 in 6.2 mi South 11.5 mph - N/A   Partly Cloudy
11:50 AM 68.0 °F 53.6 °F 60% 30.18 in 6.2 mi SSW 11.5 mph - N/A   Scattered Clouds
12:20 PM 68.0 °F 53.6 °F 60% 30.15 in 6.2 mi SSW 13.8 mph - N/A   Scattered Clouds
12:50 PM 68.0 °F 53.6 °F 60% 30.15 in 6.2 mi SSW 12.7 mph - N/A   Scattered Clouds
1:20 PM 69.8 °F 51.8 °F 53% 30.15 in 6.2 mi SSW 13.8 mph - N/A   Scattered Clouds
1:50 PM 69.8 °F 51.8 °F 53% 30.15 in 6.2 mi SW 12.7 mph - N/A   Scattered Clouds
2:20 PM 68.0 °F 53.6 °F 60% 30.15 in 6.2 mi SW 12.7 mph - N/A   Scattered Clouds
2:50 PM 69.8 °F 53.6 °F 56% 30.15 in 6.2 mi SW 15.0 mph - N/A   Scattered Clouds
3:20 PM 68.0 °F 55.4 °F 64% 30.15 in 6.2 mi SW 16.1 mph - N/A   Partly Cloudy
3:50 PM 69.8 °F 55.4 °F 60% 30.12 in 6.2 mi SW 17.3 mph - N/A   Scattered Clouds
4:20 PM 68.0 °F 57.2 °F 68% 30.12 in 6.2 mi SW 15.0 mph - N/A   Mostly Cloudy
4:50 PM 66.2 °F 57.2 °F 73% 30.12 in 6.2 mi SW 17.3 mph - N/A   Mostly Cloudy
5:20 PM 66.2 °F 57.2 °F 73% 30.12 in 6.2 mi SW 13.8 mph - N/A   Mostly Cloudy
5:50 PM 64.4 °F 57.2 °F 77% 30.12 in 6.2 mi SSW 15.0 mph - N/A   Mostly Cloudy
6:20 PM 64.4 °F 57.2 °F 77% 30.12 in 6.2 mi SSW 10.4 mph - N/A   Mostly Cloudy
6:50 PM 66.2 °F 57.2 °F 73% 30.12 in 6.2 mi SSW 10.4 mph - N/A   Mostly Cloudy
7:20 PM 66.2 °F 59.0 °F 78% 30.09 in 6.2 mi SSW 11.5 mph - N/A   Mostly Cloudy
7:50 PM 66.2 °F 59.0 °F 78% 30.09 in 6.2 mi SSW 13.8 mph - N/A   Mostly Cloudy
8:50 PM 64.4 °F 59.0 °F 83% 30.09 in 6.2 mi SSW 11.5 mph - N/A   Mostly Cloudy
9:20 PM 64.4 °F 60.8 °F 88% 30.09 in 6.2 mi SSW 10.4 mph - N/A Rain Light Rain
9:50 PM 62.6 °F 60.8 °F 94% 30.09 in 6.2 mi SSW 9.2 mph - N/A Rain Light Rain
10:20 PM 62.6 °F 60.8 °F 94% 30.09 in 6.2 mi SW 11.5 mph - N/A Rain Light Rain
10:50 PM 64.4 °F 60.8 °F 88% 30.09 in 6.2 mi SW 10.4 mph - N/A   Mostly Cloudy
11:20 PM 64.4 °F 62.6 °F 94% 30.09 in 6.2 mi SW 11.5 mph - N/A   Mostly Cloudy
11:50 PM 64.4 °F 60.8 °F 88% 30.06 in 6.2 mi SW 10.4 mph - N/A   Mostly Cloudy